Flag for Germany Weather past 2 weeks in Delbrück, North Rhine-Westphalia, Germany

Now
64 °F

Light rain. Broken clouds.


Feels Like: 64 °F
Forecast: 56 / 80 °F
Wind: 6 mph from West

Location: Paderborn / Lippstadt

Current Time: Aug 4, 2015 at 4:21:20 PM

Latest Report: Aug 4, 2015 at 3:50 PM


Visibility: 5 mi

Pressure: 29.95 "Hg

Humidity: 88%

Dew point: 61 °F

Location of DelbrückLocation

Historic Weather in Delbrück — Graph

°F

Delbrück temperature yesterday

Maximum temperature yesterday: 86 °F (at 3:50 PM)
Minimum temperature yesterday: 61 °F (at 12:20 AM)
Average temperature yesterday: 74 °F

Past Weeks' High & Low Weather Summary

 TemperatureHumidityPressure
High86 °F (Aug 3, 3:50 PM)100% (Jul 25, 3:50 AM)30.18 "Hg (Jul 25, 3:50 AM)
Low43 °F (Jul 31, 6:20 AM)25% (Aug 3, 5:50 PM)29.53 "Hg (Jul 25, 9:50 AM)
Average62 °F66%29.90 "Hg
* Reported Jul 20 3:20 PM — Aug 4 3:20 PM, Delbrück, Weather by CustomWeather, © 2015

Note: Actual official high and low records may vary slightly from our data, if they occured in-between our weather recording intervals... More about our weather records

Advertising

Delbrück weather history for previous 24 hours

 ConditionsComfort  
Time TempWeatherWind HumidityBarometerVisibility
3:20 PM
Tue, Aug 4
64 °FLight rain. Broken clouds.7 mph88%29.95 "HgN/A
2:50 PM70 °FRain showers. Partly sunny.9 mph64%29.95 "Hg4 mi
2:20 PM72 °FPassing clouds.10 mph57%29.92 "HgN/A
1:50 PM73 °FPassing clouds.9 mph53%29.92 "HgN/A
1:20 PM73 °FPassing clouds.14 mph47%29.92 "HgN/A
12:50 PM77 °FPassing clouds.12 mph44%29.89 "HgN/A
12:20 PM79 °FPassing clouds.9 mph39%29.89 "HgN/A
11:50 AM82 °FPassing clouds.6 mph35%29.86 "HgN/A
11:20 AM81 °FPassing clouds.6 mph37%29.86 "HgN/A
10:50 AM79 °FPassing clouds.8 mph45%29.86 "HgN/A
10:20 AM81 °FPassing clouds.5 mph37%29.86 "HgN/A
9:50 AM79 °FPassing clouds.6 mph42%29.86 "HgN/A
9:20 AM79 °FSunny.6 mph39%29.86 "Hg10 mi
8:50 AM75 °FPassing clouds.8 mph44%29.86 "HgN/A
8:20 AM75 °FSunny.7 mph44%29.86 "Hg10 mi
7:50 AM73 °FSunny.7 mph44%29.86 "Hg10 mi
7:20 AM72 °FSunny.8 mph47%29.86 "Hg10 mi
6:50 AM72 °FClear.10 mph47%29.86 "Hg10 mi
6:20 AM70 °FClear.10 mph50%29.86 "Hg10 mi
5:50 AM70 °FClear.8 mph50%29.89 "Hg10 mi
5:20 AM72 °FClear.7 mph44%29.89 "Hg10 mi
4:50 AM72 °FClear.6 mph47%29.89 "Hg10 mi
4:20 AM72 °FClear.7 mph47%29.89 "Hg10 mi
3:50 AM72 °FClear.7 mph47%29.92 "Hg10 mi
3:20 AM70 °FClear.8 mph53%29.92 "Hg10 mi
2:50 AM70 °FClear.8 mph53%29.92 "Hg10 mi
2:20 AM70 °FClear.7 mph53%29.92 "Hg10 mi
1:50 AM70 °FClear.8 mph53%29.95 "Hg10 mi
1:20 AM70 °FClear.9 mph53%29.95 "Hg10 mi
12:50 AM70 °FClear.9 mph53%29.95 "Hg10 mi
12:20 AM72 °FClear.8 mph50%29.95 "Hg10 mi
11:50 PM
Mon, Aug 3
72 °FClear.8 mph53%29.95 "Hg10 mi
11:20 PM68 °FClear.9 mph64%29.98 "Hg10 mi
10:50 PM70 °FClear.8 mph60%29.98 "Hg10 mi
10:20 PM72 °FClear.8 mph53%29.98 "Hg10 mi
9:50 PM72 °FSunny.8 mph57%29.98 "Hg10 mi
9:20 PM72 °FSunny.5 mph53%29.98 "Hg10 mi
8:50 PM79 °FSunny.5 mph39%29.95 "Hg10 mi
8:20 PM82 °FSunny.3 mph32%29.98 "Hg10 mi
7:50 PM84 °FSunny.5 mph29%29.95 "Hg10 mi
7:20 PM84 °FSunny.6 mph29%29.98 "Hg10 mi
6:50 PM84 °FPassing clouds.9 mph31%29.98 "HgN/A
6:20 PM86 °FSunny.12 mph29%29.98 "Hg10 mi
5:50 PM86 °FPassing clouds.8 mph25%29.98 "HgN/A
5:20 PM86 °FPassing clouds.9 mph27%29.98 "HgN/A
4:50 PM84 °FPassing clouds.10 mph29%29.98 "HgN/A
4:20 PM86 °FSunny.10 mph29%29.98 "Hg10 mi
Weather by CustomWeather, © 2015

See weather overviewHow to use our weather pages